Home   Weather   Lüdenscheid   Past weeks
Flag for Germany

Past Weather in Lüdenscheid, North Rhine-Westphalia, Germany — Yesterday and Last 2 Weeks

Now
55 °F

Low clouds.


Feels Like: 54 °F
Forecast: 59 / 47 °F
Wind: 6 mph from Northwest

Location: Dortmund / Wickede

Current Time: May 21, 2019 at 11:01:13 am

Latest Report: May 21, 2019 at 10:20 am


Visibility: 6 mi

Pressure: 29.83 "Hg

Humidity: 94%

Dew Point: 54 °F

Location of LüdenscheidLocation

Past Weather in Lüdenscheid — Graph

°F

Lüdenscheid Temperature Yesterday

Maximum temperature yesterday: 63 °F (at 3:50 pm)
Minimum temperature yesterday: 48 °F (at 5:20 am)
Average temperature yesterday: 57 °F

High & Low Weather Summary for the Past Weeks

 TemperatureHumidityPressure
High73 °F (May 18, 2:20 pm)100% (May 7, 5:20 am)30.69 "Hg (May 7, 5:20 am)
Low36 °F (May 7, 5:20 am)29% (May 13, 5:20 pm)29.42 "Hg (May 8, 6:50 pm)
Average52 °F74%29.97 "Hg
* Reported May 6 9:20 am — May 21 9:20 am, Lüdenscheid. Weather by CustomWeather, © 2019

Note: Actual official high and low records may vary slightly from our data, if they occured in-between our weather recording intervals... More about our weather records

Advertising

Lüdenscheid Weather History for the Previous 24 Hours

Scroll right to see more
 ConditionsComfort  
Time TempWeatherWind HumidityBarometerVisibility
9:20 am
Tue, May 21
55 °FDrizzle. Low clouds.6 mph94%29.80 "Hg4 mi
8:50 am55 °FFog.6 mph94%29.80 "Hg3 mi
8:20 am55 °FLight rain. Low clouds.5 mph94%29.77 "Hg3 mi
7:50 am54 °FLight rain. Partly sunny.6 mph100%29.77 "Hg2 mi
7:20 am54 °FLight rain. Low clouds.7 mph100%29.77 "Hg2 mi
6:50 am55 °FLight rain. Low clouds.6 mph94%29.77 "Hg2 mi
6:20 am55 °FLight rain. Fog.6 mph94%29.77 "Hg2 mi
5:50 am55 °FDrizzle. Fog.6 mph94%29.77 "Hg3 mi
5:20 am55 °FFog.8 mph94%29.74 "Hg3 mi
4:50 am55 °FLow clouds.7 mph94%29.74 "Hg3 mi
4:20 am55 °FPassing clouds.8 mph94%29.74 "Hg4 mi
3:50 am55 °FPassing clouds.7 mph94%29.74 "Hg3 mi
3:20 am55 °FPassing clouds.9 mph100%29.74 "Hg2 mi
2:50 am55 °FPassing clouds.8 mph100%29.74 "Hg1 mi
2:20 am55 °FLow clouds.7 mph100%29.74 "Hg2 mi
1:50 am57 °FLow clouds.9 mph88%29.74 "Hg4 mi
1:20 am57 °FOvercast.7 mph88%29.74 "Hg5 mi
12:50 am57 °FOvercast.6 mph94%29.74 "Hg6 mi
12:20 am57 °FOvercast.6 mph94%29.74 "HgN/A
11:50 pm
Mon, May 20
59 °FOvercast.7 mph88%29.74 "HgN/A
11:20 pm59 °FOvercast.7 mph88%29.74 "Hg6 mi
10:50 pm59 °FOvercast.7 mph88%29.74 "Hg5 mi
10:20 pm59 °FOvercast.7 mph88%29.74 "Hg6 mi
9:50 pm61 °FOvercast.7 mph83%29.74 "HgN/A
9:20 pm61 °FOvercast.6 mph83%29.74 "HgN/A
8:50 pm61 °FOvercast.6 mph83%29.74 "HgN/A
8:20 pm61 °FOvercast.8 mph83%29.74 "HgN/A
7:50 pm61 °FOvercast.7 mph83%29.74 "HgN/A
7:20 pm61 °FOvercast.8 mph83%29.71 "HgN/A
6:50 pm61 °FOvercast.8 mph83%29.71 "HgN/A
6:20 pm61 °FPartly sunny.8 mph83%29.71 "HgN/A
5:50 pm61 °FPartly sunny.10 mph83%29.71 "Hg5 mi
5:20 pm61 °FPartly sunny.8 mph88%29.71 "Hg6 mi
4:50 pm63 °FPartly sunny.7 mph77%29.71 "Hg6 mi
4:20 pm63 °FPartly sunny.6 mph77%29.71 "Hg6 mi
3:50 pm63 °FMore clouds than sun.6 mph77%29.71 "HgN/A
3:20 pm61 °FPartly sunny.6 mph88%29.71 "Hg6 mi
2:50 pm61 °FOvercast.6 mph88%29.71 "Hg6 mi
2:20 pm61 °FOvercast.6 mph83%29.71 "HgN/A
1:50 pm61 °FOvercast.5 mph83%29.74 "Hg6 mi
1:20 pm59 °FOvercast.6 mph88%29.74 "Hg5 mi
12:50 pm59 °FOvercast.5 mph88%29.71 "Hg4 mi
12:20 pm57 °FLow clouds.6 mph94%29.71 "Hg4 mi
11:50 am57 °FLow clouds.5 mph94%29.71 "Hg4 mi
11:20 am57 °FLow clouds.5 mph94%29.71 "Hg3 mi
Weather by CustomWeather, © 2019

See weather overview